Winnemucca, NV

11:02 PM PDT on August 21, 2017 (GMT -0700)
Winnemucca Municipal

Weather History for KWMC - February, 2014

Change the Weather History Date:

Saturday, February 1, 2014

  Actual Average Record
Temperature  
Mean Temperature 19 °F 32 °F  
Max Temperature 35 °F 44 °F 63 °F (1934)
Min Temperature 3 °F 21 °F -19 °F (1893)
Degree Days  
Heating Degree Days 46 33  
Month to date heating degree days 46 33  
Since 1 July heating degree days 3990 3786  
Cooling Degree Days 0 0  
Month to date cooling degree days 0 0  
Year to date cooling degree days 0 0  
Moisture  
Dew Point 15 °F    
Average Humidity 78    
Maximum Humidity 100    
Minimum Humidity 56    
Precipitation  
Precipitation 0.00 in 0.02 in 0.54 in (1907)
Month to date precipitation 0.00 0.02  
Year to date precipitation 0.49 0.89  
Snow  
Snow 0.00 in 0.20 in 5.80 in (1910)
Month to date snowfall 0.0 0.2  
Since 1 July snowfall 21.2 12.8  
Snow Depth 3.00 in    
Sea Level Pressure  
Sea Level Pressure 30.19 in    
Wind  
Wind Speed 4 mph (SE)    
Max Wind Speed 10 mph    
Max Gust Speed 12 mph    
Visibility 10 miles    
Events      
T = Trace of Precipitation, MM = Missing Value Source: NWS Daily Summary

Daily Weather History Graph

Daily Weather History Graph

Search for Another Location

Airport or City:

Trip Planner

Search our weather history database for the weather conditions in past years. The results will help you decide how hot, cold, wet, or windy it might be!

Date:

Astronomy

Feb. 01, 2014 Rise Set
Actual Time 7:01 AM PST 5:08 PM PST
Civil Twilight 6:32 AM PST 5:37 PM PST
Nautical Twilight 5:59 AM PST 6:10 PM PST
Astronomical Twilight 5:27 AM PST 6:42 PM PST
Moon 7:52 AM PST (2/1) 7:50 PM PST (2/1)
Length of Visible Light 11h 05m
Length of Day
10h 07m
Waxing Crescent, 5% of the Moon is Illuminated
Feb 1
Waxing Crescent
Feb 6
First Quarter
Feb 14
Full
Feb 22
Last Quarter
Mar 1
New

Hourly Weather History & Observations

Time (PST) Temp. Windchill Dew Point Humidity Pressure Visibility Wind Dir Wind Speed Gust Speed Precip Events Conditions
12:56 AM 7.0 °F 0.1 °F 6.1 °F 96% 30.15 in 10.0 mi SE 3.5 mph - N/A   Partly Cloudy
1:56 AM 8.1 °F - 7.0 °F 95% 30.16 in 10.0 mi Calm Calm - N/A   Clear
2:56 AM 10.0 °F 0.4 °F 8.1 °F 92% 30.14 in 10.0 mi SE 5.8 mph - N/A   Mostly Cloudy
3:56 AM 8.1 °F -0.5 °F 5.0 °F 87% 30.17 in 10.0 mi SE 4.6 mph - N/A   Clear
4:56 AM 9.0 °F -2.2 °F 6.1 °F 88% 30.19 in 10.0 mi SSE 6.9 mph - N/A   Clear
5:56 AM 5.0 °F -4.1 °F 3.9 °F 95% 30.23 in 10.0 mi South 4.6 mph - N/A   Clear
6:47 AM 3.9 °F -6.9 °F 1.9 °F 91% 30.10 in 10.0 mi SSE 5.8 mph - N/A   Partly Cloudy
6:56 AM 3.9 °F -6.9 °F 3.0 °F 96% 30.26 in 10.0 mi SSE 5.8 mph - N/A   Clear
7:56 AM 10.0 °F - 8.1 °F 92% 30.27 in 10.0 mi Calm Calm - N/A   Clear
8:56 AM 18.0 °F - 16.0 °F 92% 30.27 in 10.0 mi Calm Calm - N/A   Clear
9:56 AM 26.1 °F - 19.9 °F 78% 30.25 in 10.0 mi Calm Calm - N/A   Clear
10:56 AM 28.0 °F - 21.0 °F 75% 30.24 in 10.0 mi Calm Calm - N/A   Clear
11:56 AM 30.9 °F - 21.9 °F 69% 30.21 in 10.0 mi Calm Calm - N/A   Clear
12:56 PM 33.1 °F 30.0 °F 21.0 °F 61% 30.19 in 10.0 mi SW 3.5 mph - N/A   Clear
1:56 PM 34.0 °F - 21.0 °F 59% 30.17 in 10.0 mi Calm Calm - N/A   Clear
2:56 PM 34.0 °F 31.0 °F 21.0 °F 59% 30.16 in 10.0 mi SE 3.5 mph - N/A   Clear
3:56 PM 35.1 °F - 21.0 °F 57% 30.17 in 10.0 mi Calm Calm - N/A   Clear
4:56 PM 30.9 °F 27.5 °F 21.9 °F 69% 30.18 in 10.0 mi ESE 3.5 mph - N/A   Clear
5:56 PM 21.0 °F 13.4 °F 19.0 °F 92% 30.22 in 10.0 mi SSE 5.8 mph - N/A   Clear
6:56 PM 19.9 °F 12.1 °F 18.0 °F 92% 30.23 in 10.0 mi ESE 5.8 mph - N/A   Clear
7:56 PM 19.9 °F 9.3 °F 17.1 °F 89% 30.20 in 10.0 mi SSE 9.2 mph - N/A   Clear
8:56 PM 24.1 °F 14.4 °F 21.0 °F 88% 30.16 in 10.0 mi SSE 9.2 mph - N/A   Clear
9:56 PM 19.0 °F 11.1 °F 17.1 °F 92% 30.14 in 10.0 mi SE 5.8 mph - N/A   Clear
10:56 PM 19.0 °F 13.9 °F 17.1 °F 92% 30.13 in 10.0 mi ENE 3.5 mph - N/A   Clear
11:56 PM 17.1 °F 7.6 °F 15.1 °F 92% 30.12 in 10.0 mi ENE 6.9 mph - N/A   Clear